Regional Weather Roundup
Issued by NWS

Home | Current Version | Previous Version | Graphics & Text | Print | Product List | Glossary On
Versions: 1 2 3 4 5 6 7 8 9 10 11 12 13 14 15 16 17 18 19 20 21 22 23 24 25 26 27 28
000
ASUS45 KBOI 301510
RWRID

IDAHO REGIONAL WEATHER ROUNDUP
NATIONAL WEATHER SERVICE BOISE ID
900 AM MDT MON MAY 30 2016

NOTE: "FAIR" INDICATES FEW OR NO CLOUDS BELOW 12000 FEET
WITH NO SIGNIFICANT WEATHER AND/OR OBSTRUCTIONS TO VISIBILITY

IDZ012-014-301600-
SOUTHWEST IDAHO


CITY           SKY/WX    TMP DP  RH WIND       PRES   REMARKS
BOISE          MOSUNNY   55  40  56 W10       30.17R
CALDWELL       MOSUNNY   58  41  53 W15       30.17R
MOUNTAIN HOME  MOSUNNY   62  44  52 NW22      30.14R
$$

IDZ016-017-301600-
SOUTHCENTRAL IDAHO


CITY           SKY/WX    TMP DP  RH WIND       PRES   REMARKS
BURLEY         SUNNY     59  40  49 W20G30    30.11R
JEROME         SUNNY     56  38  50 SW14      30.15R
TWIN FALLS     SUNNY     58  36  43 SW21      30.15R
$$

IDZ019>023-301600-
SOUTHEAST IDAHO


CITY           SKY/WX    TMP DP  RH WIND       PRES   REMARKS
IDAHO FALLS    SUNNY     57  45  64 SW15      30.12R
POCATELLO      MOSUNNY   58  40  51 SW18      30.14R
REXBURG        SUNNY     55  44  66 W9        30.11R
$$

IDZ006-010-011-018-031-032-301600-
CENTRAL IDAHO MOUNTAINS


CITY           SKY/WX    TMP DP  RH WIND       PRES   REMARKS
MCCALL         SUNNY     51  32  48 N12       30.17S
HAILEY         SUNNY     52  36  54 NW6       30.15R
STANLEY          N/A     46  32  58 CALM      30.20S
SALMON         SUNNY     57  36  44 SE3       30.13S
CHALLIS        SUNNY     54  34  46 CALM      30.15R
$$

IDZ002-004-006-007-026-301600-
NORTHERN IDAHO


CITY           SKY/WX    TMP DP  RH WIND       PRES   REMARKS
LEWISTON       SUNNY     61  38  42 VRB3      30.22R
LOWELL           N/A     55  48  77 CALM      30.21R
COEUR D`ALENE  SUNNY     52  39  62 SW5       30.19R
MULLAN PASS    SUNNY     38  30  73 VRB3      30.19R
$$




USA.gov is the U.S. government's official web portal to all federal, state and local government web resources and services.